Regional Weather Roundup
Issued by NWS Newport/Morehead, NC

Current Version | Previous Version | Graphics & Text | Print | Product List | Glossary Off
Versions: 1 2 3 4 5 6 7 8 9 10 11 12 13 14 15 16 17 18 19 20 21 22 23 24 25 26 27 28 29 30 31 32 33 34 35 36 37 38 39 40 41 42 43 44 45 46 47 48 49 50

000
ASUS42 KMHX 011610
RWRMHX
WEATHER ROUNDUP FOR EASTERN NORTH CAROLINA
NATIONAL WEATHER SERVICE NEWPORT/MOREHEAD CITY NC
1200 PM EDT FRI AUG 01 2014

NOTE: "FAIR" INDICATES FEW OR NO CLOUDS BELOW 12,000 FEET
WITH NO SIGNIFICANT WEATHER AND/OR OBSTRUCTIONS TO VISIBILITY

NCZ015>017-031-032-045>047-102-103-011700-
NORTH COAST

CITY           SKY/WX    TMP DP  RH WIND       PRES   REMARKS
EDENTON        LGT RAIN  74  72  94 NE7       30.14S
ELIZABETH CITY LGT RAIN  76  70  82 NE9       30.15S
KITTY HAWK     DRIZZLE   77  70  79 NE8       30.14R
MANTEO         NOT AVBL

$$

NCZ045>047-081-094-103-104-011700-
CENTRAL COAST

CITY           SKY/WX    TMP DP  RH WIND       PRES   REMARKS
FRISCO         CLOUDY    80  77  90 SE14      30.10S
SWANQUARTER      N/A     75 N/A N/A NE5G12    30.06F

$$

NCZ095-097-098-100-101-011700-
SOUTHERN COAST

CITY           SKY/WX    TMP DP  RH WIND       PRES   REMARKS
BEAUFORT       HVY RAIN  74  71  91 E8        30.10F FOG
CEDAR ISLAND     N/A     75 N/A N/A S8G17     30.15R
JACKSONVILLE   HVY RAIN  73  73 100 SE12      30.09S FOG
NEWPORT        NOT AVBL
PINEY ISLAND   RAIN      75  74  96 S8        30.10S FOG
WILMINGTON     RAIN      75  74  96 E3        30.08R FOG


$$

NCZ011>013-027>030-043-044-078>080-089-090>093-098-011700-
COASTAL PLAIN

CITY           SKY/WX    TMP DP  RH WIND       PRES   REMARKS
AHOSKIE        CLOUDY    72  69  92 N6        30.16S
CLINTON        DRIZZLE   73  73 100 NE3       30.10S
ELIZABETHTOWN  DRIZZLE   75  73  92 E3        30.08F
GOLDSBORO      CLOUDY    68  68 100 NE8       30.11S
GREENVILLE     HVY RAIN  70  70 100 NE10      30.14F
HAVELOCK       RAIN      72  70  93 S5        30.11S FOG
KENANSVILLE    HVY RAIN  71  70  95 CALM      30.12R VSB 1
KINSTON        LGT RAIN  70  68  94 N5        30.12F
NEW BERN       RAIN      75  73  94 CALM      30.12R FOG
RICHLANDS      CLOUDY    72  70  94 E5        30.10S
ROANOKE RAPIDS NOT AVBL
ROCKY MOUNT    CLOUDY    74  67  78 NE6       30.14S
WASHINGTON     CLOUDY    73  71  94 E8        30.11F
WHITEVILLE     CLOUDY    76  72  87 E8        30.06S

$$

AMZ130-135-150-152-154-156-158-170-250-252-270-ANZ085-086-088-633-658-670-011700-
MARINE OBSERVATIONS

STATION/POSITION TIME  TEMP    WIND        PRES    WAVE   SWELL
                       AIR SEA DIR/SP/G            HT/PER HT/PER
                 (UTC) (F)     (DEG/KT/KT) (MB)    (FT/S) (FT/S)
CHESAPEAKE LIGHT NOT AVBL
BUOY 44014       1600   77 78   60/ 16/ 17 1020.7    3/ 7   2/ 7
DUCK             1600   77 76   60/ 17/ 19 1020.1
2E DUCK          1600                        N/A     3/ 6
OREGON INLET     1600   77 78   50/ 11/ 16 1020.2
BUOY 44095       1600      78                N/A     4/ 6
20E OREGON INLET NOT AVBL
HATTERAS CG      1600   80 79  130/ 12/ 16 1019.5
DIAMOND BUOY     1600          VRB 14/ 16  1019.2    4/ 7   2/ 7
CAPE LOOKOUT     1500   76     140/  9/ 10 1019.4
BEAUFORT LAB     1600   75 80  120/ 11/ 13 1018.7
30 SE NEW RIVER  1600   76 81  200/ 12/ 16 1018.7    4/ 5   3/ 5
5 SE WRIGHTSVILL 1500   72 81  270/  8/ 12   N/A
BUOY 41002       1538   82 81  160/ 14/ 16 1019.9    4/ 6   2/ 7
BUOY 41004       1600   75 82  130/  8/ 10 1016.9    4/ 5   3/ 5

$$


USA.gov is the U.S. government's official web portal to all federal, state and local government web resources and services.